Location: Kmicica-DOM
(53.1202°N, 23.2052°E)
Time: 04:15:57
(UTC+02:00)

USA 276 - Pass Details

Date: 19 August 2022
Orbit: 366 x 369 km, 50.0° (Epoch: 12 July)

Event Time Altitude Azimuth Distance (km) Brightness Sun altitude
Exits shadow 02:05:28 13° 102° (ESE) 1,197 4.7 -21.0°
Drops below altitude 10° 02:05:53 10° 98° (E) 1,347 5.0 -21.0°
Sets 02:08:02 0° 88° (E) 2,196 6.3 -20.8°
